Bangkok (Don Mueang), Thailand

7:06 PM +07 on September 25, 2017 (GMT +0700)
Bangkok International

Weather History for VTBD - March, 2013

Change the Weather History Date:

Wednesday, March 20, 2013

  Actual Average Record
Temperature  
Mean Temperature 89 °F -  
Max Temperature 97 °F 94 °F 98 °F (2005)
Min Temperature 81 °F 77 °F 73 °F (2007)
Cooling Degree Days 24    
Growing Degree Days 39 (Base 50)    
Moisture  
Dew Point 76 °F    
Average Humidity 69    
Maximum Humidity 89    
Minimum Humidity 40    
Precipitation  
Precipitation 0.00 in 0.07 in - ()
Sea Level Pressure  
Sea Level Pressure 29.79 in    
Wind  
Wind Speed 7 mph ()    
Max Wind Speed 14 mph    
Max Gust Speed -    
Visibility 6.2 miles    
Events      
Averages and records for this station are not official NWS values.
T = Trace of Precipitation, MM = Missing Value Source: Averaged Metar Reports

Daily Weather History Graph

Daily Weather History Graph

Search for Another Location

Airport or City:

Trip Planner

Search our weather history database for the weather conditions in past years. The results will help you decide how hot, cold, wet, or windy it might be!

Date:

Astronomy

Mar. 20, 2013 Rise Set
Actual Time 6:21 AM +07 6:28 PM +07
Civil Twilight 6:00 AM +07 6:49 PM +07
Nautical Twilight 5:35 AM +07 7:14 PM +07
Astronomical Twilight 5:11 AM +07 7:39 PM +07
Moon 12:27 PM +07 (3/20) 12:45 AM +07 (3/20)
Length of Visible Light 12h 49m
Length of Day
12h 06m
First Quarter, 55% of the Moon is Illuminated
Mar 20
First Quarter
Mar 27
Full
Apr 3
Last Quarter
Apr 10
New
Apr 18
First Quarter

Hourly Weather History & Observations

Time (+07) Temp. Heat Index Dew Point Humidity Pressure Visibility Wind Dir Wind Speed Gust Speed Precip Events Conditions
12:00 AM 84.2 °F 94.1 °F 77.0 °F 79% 29.80 in 6.2 mi SSW 6.9 mph - N/A   Scattered Clouds
12:30 AM 84.2 °F 94.1 °F 77.0 °F 79% 29.77 in 6.2 mi SSW 6.9 mph - N/A   Scattered Clouds
1:00 AM 84 °F - 77 °F 73% 29.80 in 6 mi SSW 9.2 mph - -   Scattered Clouds
1:00 AM 84.2 °F 94.1 °F 77.0 °F 79% 29.77 in 6.2 mi SSW 9.2 mph - N/A   Scattered Clouds
1:30 AM 82.4 °F 90.9 °F 77.0 °F 84% 29.77 in 6.2 mi SSW 8.1 mph - N/A   Mostly Cloudy
2:00 AM 84.2 °F 96.1 °F 78.8 °F 84% 29.77 in 6.2 mi SSW 8.1 mph - N/A   Mostly Cloudy
2:30 AM 84.2 °F 94.1 °F 77.0 °F 79% 29.77 in 6.2 mi South 6.9 mph - N/A   Mostly Cloudy
3:00 AM 84.2 °F 96.1 °F 78.8 °F 84% 29.77 in 6.2 mi SSW 4.6 mph - N/A   Mostly Cloudy
3:30 AM 82.4 °F 92.4 °F 78.8 °F 89% 29.77 in 6.2 mi SSE 3.5 mph - N/A   Mostly Cloudy
4:00 AM 82.4 °F 90.9 °F 77.0 °F 84% 29.77 in 6.2 mi SSE 3.5 mph - N/A   Scattered Clouds
4:30 AM 82.4 °F 90.9 °F 77.0 °F 84% 29.77 in 6.2 mi SSE 3.5 mph - N/A   Scattered Clouds
5:00 AM 82.4 °F 90.9 °F 77.0 °F 84% 29.77 in 6.2 mi SSE 3.5 mph - N/A   Scattered Clouds
5:30 AM 82.4 °F 90.9 °F 77.0 °F 84% 29.77 in 6.2 mi SSE 4.6 mph - N/A   Scattered Clouds
6:00 AM 82.4 °F 90.9 °F 77.0 °F 84% 29.80 in 6.2 mi SSE 3.5 mph - N/A   Scattered Clouds
6:30 AM 82.4 °F 90.9 °F 77.0 °F 84% 29.80 in 6.2 mi ESE 3.5 mph - N/A   Scattered Clouds
7:00 AM 82 °F - 77 °F 82% 29.82 in 6 mi SSE 4.6 mph - -   Scattered Clouds
7:00 AM 82.4 °F 90.9 °F 77.0 °F 84% 29.80 in 6.2 mi SSE 4.6 mph - N/A   Scattered Clouds
7:30 AM 82.4 °F 90.9 °F 77.0 °F 84% 29.83 in 5.6 mi South 5.8 mph - N/A   Mostly Cloudy
8:00 AM 84.2 °F 94.1 °F 77.0 °F 79% 29.83 in 5.6 mi SSE 11.5 mph - N/A   Mostly Cloudy
8:30 AM 86.0 °F 99.3 °F 78.8 °F 79% 29.83 in 5.6 mi South 6.9 mph - N/A   Mostly Cloudy
9:00 AM 87.8 °F 102.5 °F 78.8 °F 75% 29.86 in 6.2 mi South 6.9 mph - N/A   Mostly Cloudy
9:30 AM 87.8 °F 102.5 °F 78.8 °F 75% 29.86 in 6.2 mi SSE 8.1 mph - N/A   Mostly Cloudy
10:00 AM 89.6 °F 99.8 °F 75.2 °F 62% 29.86 in 6.2 mi South 6.9 mph - N/A   Mostly Cloudy
10:30 AM 91.4 °F 102.5 °F 75.2 °F 59% 29.86 in 6.2 mi WSW 8.1 mph - N/A   Mostly Cloudy
11:00 AM 93.2 °F 105.0 °F 75.2 °F 56% 29.83 in 6.2 mi SSW 3.5 mph - N/A   Mostly Cloudy
11:30 AM 93.2 °F 105.0 °F 75.2 °F 56% 29.83 in 6.2 mi WSW 4.6 mph - N/A   Mostly Cloudy
12:00 PM 93.2 °F 105.0 °F 75.2 °F 56% 29.80 in 6.2 mi SSW 10.4 mph - N/A   Mostly Cloudy
12:30 PM 95.0 °F 107.4 °F 75.2 °F 53% 29.80 in 6.2 mi SSW 4.6 mph - N/A   Mostly Cloudy
1:00 PM 96 °F - 74 °F 40% 29.80 in 6 mi South 5.8 mph - -   Scattered Clouds
1:00 PM 95.0 °F 104.5 °F 73.4 °F 49% 29.80 in 6.2 mi South 5.8 mph - N/A   Mostly Cloudy
1:30 PM 96.8 °F 107.3 °F 73.4 °F 47% 29.77 in 6.2 mi South 4.6 mph - N/A   Mostly Cloudy
2:00 PM 96.8 °F 107.3 °F 73.4 °F 47% 29.74 in 6.2 mi South 6.9 mph - N/A   Mostly Cloudy
2:30 PM 96.8 °F 107.3 °F 73.4 °F 47% 29.74 in 6.2 mi WSW 9.2 mph - N/A   Mostly Cloudy
3:00 PM 96.8 °F 109.6 °F 75.2 °F 50% 29.74 in 6.2 mi SSW 11.5 mph - N/A   Mostly Cloudy
3:30 PM 96.8 °F 109.6 °F 75.2 °F 50% 29.74 in 6.2 mi SSW 10.4 mph - N/A   Mostly Cloudy
4:00 PM 96.8 °F 109.6 °F 75.2 °F 50% 29.71 in 6.2 mi SSW 6.9 mph - N/A   Mostly Cloudy
4:30 PM 95.0 °F 107.4 °F 75.2 °F 53% 29.74 in 6.2 mi SSW 11.5 mph - N/A   Mostly Cloudy
5:00 PM 95.0 °F 107.4 °F 75.2 °F 53% 29.74 in 6.2 mi WSW 8.1 mph - N/A   Mostly Cloudy
5:30 PM 93.2 °F 107.2 °F 77.0 °F 59% 29.74 in 6.2 mi South 10.4 mph - N/A   Mostly Cloudy
6:00 PM 91.4 °F 102.5 °F 75.2 °F 59% 29.74 in 6.2 mi WSW 10.4 mph - N/A   Mostly Cloudy
6:30 PM 91.4 °F 102.5 °F 75.2 °F 59% 29.74 in 6.2 mi South 10.4 mph - N/A   Mostly Cloudy
7:00 PM 90 °F - 70 °F 43% 29.77 in 6 mi South 9.2 mph - -   Scattered Clouds
7:00 PM 89.6 °F 102.2 °F 77.0 °F 66% 29.74 in 6.2 mi South 9.2 mph - N/A   Mostly Cloudy
7:30 PM 89.6 °F 102.2 °F 77.0 °F 66% 29.77 in 6.2 mi South 13.8 mph - N/A   Mostly Cloudy
8:00 PM 87.8 °F 99.7 °F 77.0 °F 70% 29.77 in 6.2 mi SSW 10.4 mph - N/A   Mostly Cloudy
8:30 PM 86.0 °F 96.9 °F 77.0 °F 74% 29.77 in 6.2 mi SSW 11.5 mph - N/A   Mostly Cloudy
9:00 PM 86.0 °F 96.9 °F 77.0 °F 74% 29.80 in 6.2 mi SSW 8.1 mph - N/A   Mostly Cloudy
9:30 PM 86.0 °F 96.9 °F 77.0 °F 74% 29.80 in 6.2 mi SW 9.2 mph - N/A   Mostly Cloudy
10:00 PM 86.0 °F 96.9 °F 77.0 °F 74% 29.80 in 6.2 mi SSW 12.7 mph - N/A   Mostly Cloudy
10:30 PM 86.0 °F 96.9 °F 77.0 °F 74% 29.83 in 6.2 mi SSW 5.8 mph - N/A   Mostly Cloudy
11:00 PM 86.0 °F 96.9 °F 77.0 °F 74% 29.83 in 6.2 mi SSW 8.1 mph - N/A   Mostly Cloudy
11:30 PM 84.2 °F 94.1 °F 77.0 °F 79% 29.80 in 6.2 mi SSW 9.2 mph - N/A   Mostly Cloudy